"Pseudo-MPEC" for P1161FQ

Created 2020 Sep 19 20:07:24 UT using Find_Orb

Click here for an explanation of pseudo-MPECs

 
 Astrometry: 
     P1161FQ  C2020 09 14TtR1s3Astrometry`NM(AAq$i^.XJdYk2kXqu(;)G:Oe'6m/r5PjF51
     P1161FQ  C2020 09 14mt(!t`%8sq%dOv_Xkiredacted;49]clickdX?TLNL;Xp.RRcLliF51
     P1161FQ  C2020 09 14?e`DOit5!fX6YoTk4bqb4fA_tM78*'soAqy0EhfehereFVD;06*rF51
     P1161FQ  C2020 09 14al`NgE;7:ouABDbfor9CM^19J1oH'Y81+WkNEkP:\explanationF51

Station data:
(F51) Pan-STARRS 1, Haleakala  (N20.707235 W156.255910)  US/Hawaii.
   Observers N. Primak, A. Schultz, S. Watters, J. Thiel, T. Goggia. Measurer
   PS1 Science Consortium. 1.8-m Ritchey-Chrétien + CCD.

Orbital elements:  P1161FQ
   Perihelion 2020 Dec 8.717677 +/- 38.4 TT = 17:13:27 (JD 2459192.217677)
Epoch 2020 Sep 14.0 TT = JDT 2459106.5   Earth MOID: 0.0206   AutoNEOCP
M 280.24710602 +/- 32               (J2000 ecliptic)
n   0.93041362 +/- 0.445            Peri.   83.81209 +/- 58
a   1.03916698 +/- 0.331            Node   355.96414 +/- 19
e   0.0692403 +/- 0.247             Incl.    8.70784 +/- 14
P   1.06/386.92d           H 27.3   G  0.15   U 12.2  SR
q 0.96721468 +/- 0.24    Q 1.11111928 +/- 4.78
From 4 observations 2020 Sept. 14 (53.2 min); mean residual 0".48
Residuals in arcseconds: 
200914 F51  .21+  .01-    200914 F51  .37+  .95-    
200914 F51  .50-  .49+    200914 F51  .08-  .47+    

Ephemerides (geocentric):
Date (UTC) HH   RA              Dec         delta   r     elong  mag " sig PA
---- -- -- --  -------------   -----------  ------ ------ -----  --- ---- ---
2020 09 19 20  01 13 01.420   +20 08 16.48  .02302 1.0244 150.4 20.5  54d   9
2020 09 19 21  01 12 39.585   +20 24 38.48  .02300 1.0244 150.3 20.5  54d   9
2020 09 19 22  01 12 17.624   +20 41 02.07  .02298 1.0243 150.2 20.5  54d   9
2020 09 19 23  01 11 55.536   +20 57 27.21  .02296 1.0243 150.1 20.5  54d   9
2020 09 20 00  01 11 33.322   +21 13 53.86  .02294 1.0243 150.0 20.5  54d   9
2020 09 20 01  01 11 10.980   +21 30 21.94  .02292 1.0242 149.9 20.5  54d   9
2020 09 20 02  01 10 48.509   +21 46 51.43  .02290 1.0242 149.8 20.5  54d   9
2020 09 20 03  01 10 25.908   +22 03 22.25  .02288 1.0241 149.7 20.5  54d   9
2020 09 20 04  01 10 03.177   +22 19 54.37  .02286 1.0241 149.6 20.5  54d   9
2020 09 20 05  01 09 40.314   +22 36 27.72  .02284 1.0240 149.5 20.5  54d   9
2020 09 20 06  01 09 17.320   +22 53 02.25  .02283 1.0240 149.4 20.5  54d   9
2020 09 20 07  01 08 54.192   +23 09 37.90  .02281 1.0239 149.3 20.5  54d   9
2020 09 20 08  01 08 30.931   +23 26 14.63  .02280 1.0239 149.2 20.5  54d   9
2020 09 20 09  01 08 07.534   +23 42 52.37  .02278 1.0238 149.0 20.5  54d   9
2020 09 20 10  01 07 44.003   +23 59 31.08  .02277 1.0238 148.9 20.5  54d   9
2020 09 20 11  01 07 20.334   +24 16 10.68  .02275 1.0237 148.8 20.5  54d   9
2020 09 20 12  01 06 56.529   +24 32 51.13  .02274 1.0237 148.7 20.5  54d   9
2020 09 20 13  01 06 32.585   +24 49 32.37  .02273 1.0236 148.5 20.5  54d   9
2020 09 20 14  01 06 08.502   +25 06 14.35  .02271 1.0236 148.4 20.5  54d   9
2020 09 20 15  01 05 44.279   +25 22 56.99  .02270 1.0235 148.3 20.5  54d   9
2020 09 20 16  01 05 19.914   +25 39 40.25  .02269 1.0235 148.1 20.5  54d   9
2020 09 20 17  01 04 55.409   +25 56 24.07  .02268 1.0234 148.0 20.5  54d   9
2020 09 20 18  01 04 30.760   +26 13 08.38  .02267 1.0234 147.9 20.5  54d   9
2020 09 20 19  01 04 05.967   +26 29 53.14  .02266 1.0233 147.7 20.5  54d   9
2020 09 20 20  01 03 41.030   +26 46 38.27  .02266 1.0233 147.6 20.5  54d   9
2020 09 20 21  01 03 15.947   +27 03 23.72  .02265 1.0232 147.4 20.5  54d   9
2020 09 20 22  01 02 50.718   +27 20 09.44  .02264 1.0232 147.3 20.5  54d   9
2020 09 20 23  01 02 25.341   +27 36 55.35  .02263 1.0231 147.1 20.5  54d   9
2020 09 21 00  01 01 59.816   +27 53 41.40  .02263 1.0231 147.0 20.5  54d   9
2020 09 21 01  01 01 34.141   +28 10 27.53  .02262 1.0230 146.8 20.5  54d   9
2020 09 21 02  01 01 08.316   +28 27 13.68  .02262 1.0230 146.7 20.5  54d   9
2020 09 21 03  01 00 42.339   +28 43 59.79  .02261 1.0229 146.5 20.5  54d   9
2020 09 21 04  01 00 16.210   +29 00 45.80  .02261 1.0229 146.4 20.6  54d   9
2020 09 21 05  00 59 49.928   +29 17 31.64  .02261 1.0228 146.2 20.6  54d   9
2020 09 21 06  00 59 23.491   +29 34 17.26  .02261 1.0228 146.0 20.6  54d   9
2020 09 21 07  00 58 56.899   +29 51 02.59  .02260 1.0227 145.9 20.6  54d   9
2020 09 21 08  00 58 30.150   +30 07 47.57  .02260 1.0227 145.7 20.6  54d   9
2020 09 21 09  00 58 03.244   +30 24 32.15  .02260 1.0226 145.5 20.6  54d   9
2020 09 21 10  00 57 36.180   +30 41 16.26  .02260 1.0226 145.4 20.6  54d   9
2020 09 21 11  00 57 08.956   +30 57 59.84  .02260 1.0225 145.2 20.6  54d   9
2020 09 21 12  00 56 41.571   +31 14 42.83  .02261 1.0225 145.0 20.6  54d   9
2020 09 21 13  00 56 14.026   +31 31 25.16  .02261 1.0225 144.9 20.6  54d   9
2020 09 21 14  00 55 46.317   +31 48 06.79  .02261 1.0224 144.7 20.6  54d   9
2020 09 21 15  00 55 18.445   +32 04 47.64  .02261 1.0224 144.5 20.6  54d   9
2020 09 21 16  00 54 50.408   +32 21 27.65  .02262 1.0223 144.3 20.6  54d   9
2020 09 21 17  00 54 22.205   +32 38 06.77  .02262 1.0223 144.2 20.6  53d   9
2020 09 21 18  00 53 53.836   +32 54 44.94  .02263 1.0222 144.0 20.6  53d   9
2020 09 21 19  00 53 25.298   +33 11 22.09  .02263 1.0222 143.8 20.6  53d   9